Lid_Strength_Index
7 6 6 5 7 9 10 11 12 13 13 14 15 15 15 16 16 16 16 17 17 17 17 18 18 18 17 17 17 16 16 15 17 17 15 15 14 14 14 14 14 15 15
8 7 7 9 10 13 14 15 14 15 15 15 16 16 16 16 15 16 16 17 18 19 19 19 19 18 18 18 17 17 17 16 16 18 16 15 14 15 15 16 16 16 16
7 9 10 12 13 15 15 15 15 15 16 15 15 16 16 17 17 17 17 18 19 19 19 19 19 18 18 18 17 17 17 17 16 15 16 15 15 15 16 16 16 16 16
10 11 13 13 13 14 14 15 15 15 15 15 14 16 15 17 17 18 19 19 19 19 18 18 18 18 18 17 17 17 17 17 16 16 17 17 16 16 17 18 18 17 17
12 13 14 13 13 14 15 15 15 16 16 16 17 17 17 18 18 18 18 19 19 19 19 18 18 18 17 17 17 17 17 16 16 17 18 17 17 18 19 19 19 18 18
13 13 13 14 14 15 15 16 17 17 17 18 18 17 17 17 16 17 18 19 19 19 19 18 17 17 16 16 15 15 15 17 18 18 18 19 19 19 19 19 19 20 21
14 15 16 16 16 16 17 16 17 18 18 18 18 18 18 18 17 17 17 18 19 19 19 19 18 16 16 16 16 15 15 15 16 17 19 19 19 19 19 19 20 20 21
15 17 17 17 17 16 16 17 17 18 18 18 18 17 18 17 16 17 17 18 18 19 18 18 18 18 17 17 16 17 17 17 17 17 17 18 18 17 18 19 20 20 20
17 17 17 17 18 17 17 17 17 17 17 17 17 17 17 18 16 16 17 18 18 18 18 17 16 16 15 15 16 17 18 18 17 17 17 17 17 17 18 19 20 21 22
17 17 17 17 17 17 16 17 16 17 17 17 17 17 17 17 16 16 17 18 19 18 17 17 15 15 14 14 16 18 19 19 18 18 19 19 20 20 20 20 21 23 22
16 16 16 16 16 16 16 16 16 17 17 17 18 17 16 16 16 16 16 17 17 17 16 16 15 15 14 16 17 18 18 18 19 21 21 21 21 20 20 20 20 21 22
16 16 17 16 16 17 17 17 17 18 18 18 18 18 17 16 15 15 15 15 14 16 17 17 16 15 16 17 18 18 18 20 21 21 22 21 21 21 20 20 20 21 20
18 18 18 18 18 17 17 17 17 17 17 18 18 18 17 15 15 14 14 14 15 17 17 16 16 17 18 19 19 19 22 21 21 22 22 21 21 21 21 22 21 22 22
18 18 18 18 18 18 17 17 17 18 18 17 17 17 17 17 17 16 16 16 16 17 17 18 18 19 20 21 22 22 21 21 22 22 22 22 22 23 23 22 23 22 23
17 18 18 18 17 18 17 17 17 16 15 15 15 16 16 18 17 16 17 17 18 19 21 21 21 22 22 21 21 22 21 21 22 22 22 23 23 23 23 22 22 23 24
17 16 16 17 17 17 17 16 15 15 15 15 15 15 17 16 16 16 16 17 17 18 21 22 21 21 21 21 21 21 21 23 22 22 23 23 24 23 23 22 22 23 24
16 17 16 16 16 16 16 16 16 15 14 14 15 15 15 15 15 15 16 16 17 18 21 21 21 21 21 22 22 22 22 22 23 23 23 23 23 23 24 23 23 23 23
17 18 16 16 16 16 16 16 16 16 17 17 15 15 15 14 15 16 17 18 20 23 22 21 22 22 22 22 22 23 23 23 23 23 23 23 23 24 24 23 23 24 24
16 16 16 16 16 17 17 16 16 16 16 17 18 18 20 15 16 16 17 20 21 21 22 23 22 23 23 23 23 23 23 24 24 24 24 24 23 24 24 24 24 25 25
17 18 17 16 17 17 16 17 17 17 17 18 18 18 20 20 19 20 19 22 23 22 22 23 23 23 23 23 23 23 24 24 24 24 24 23 23 23 24 24 24 24 24
15 16 17 17 17 17 17 17 17 17 18 18 18 18 19 20 19 19 20 22 23 23 23 23 23 23 23 23 24 24 25 24 24 23 23 23 23 24 24 24 24 24 24
16 16 18 18 17 18 18 18 18 18 18 18 18 20 18 19 20 21 21 22 22 23 23 23 23 23 23 24 24 24 24 24 23 23 23 23 24 24 24 24 24 24 24
16 17 18 19 19 20 20 19 19 19 19 19 19 20 21 20 19 20 21 21 22 23 24 24 24 25 24 25 24 24 24 24 23 22 23 23 23 23 24 24 24 24 23
16 16 16 17 18 20 19 19 20 22 20 20 20 20 21 21 22 22 22 22 23 24 25 25 26 25 24 24 23 23 23 23 22 22 23 23 24 24 24 24 24 23 22
16 16 16 16 18 19 20 21 20 20 20 21 21 21 22 23 23 24 24 24 26 26 25 25 24 24 23 23 23 22 22 21 21 21 21 22 24 23 23 23 22 21 20
17 17 18 18 20 20 20 20 20 21 22 22 22 22 23 23 24 24 24 25 26 25 24 23 23 23 22 22 21 21 20 19 20 20 20 21 21 21 21 21 20 20 20